Weather History for Charles City, IA

Change the Weather History Date:

Wednesday, February 13, 2013

  Actual Average Record
Temperature  
Mean Temperature 32 °F -  
Max Temperature 39 °F 30 °F 54 °F (1976)
Min Temperature 24 °F 12 °F -15 °F (1986)
Degree Days  
Heating Degree Days 34    
Moisture  
Dew Point 28 °F    
Average Humidity 83    
Maximum Humidity 93    
Minimum Humidity 75    
Precipitation  
Precipitation 0.00 in - - ()
Sea Level Pressure  
Sea Level Pressure 29.72 in    
Wind  
Wind Speed 7 mph (WSW)    
Max Wind Speed 14 mph    
Max Gust Speed 21 mph    
Visibility 10 miles    
Events Rain    
Averages and records for this station are not official NWS values.
T = Trace of Precipitation, MM = Missing Value Source: NWS Daily Summary

Daily Weather History Graph

Daily Weather History Graph

Search for Another Location

Airport:

Trip Planner

Search our weather history database for the weather conditions in past years. The results will help you decide how hot, cold, wet, or windy it might be!

Date:

Astronomy

Feb. 13, 2013 Rise Set
Actual Time 7:10 AM CST 5:39 PM CST
Civil Twilight 6:41 AM CST 6:08 PM CST
Nautical Twilight 6:07 AM CST 6:42 PM CST
Astronomical Twilight 5:34 AM CST 7:15 PM CST
Moon 8:32 AM CST (2/13) 9:50 PM CST (2/13)
Length of Visible Light 11h 27m
Length of Day
10h 28m
Waxing Crescent, 14% of the Moon is Illuminated
Feb 13
Waxing Crescent
Feb 17
First Quarter
Feb 25
Full
Mar 4
Last Quarter
Mar 11
New

Hourly Weather History & Observations

Time (CST) Temp. Windchill Dew Point Humidity Pressure Visibility Wind Dir Wind Speed Gust Speed Precip Events Conditions
12:15 AM 30.2 °F 23.4 °F 26.6 °F 86% 29.83 in 10.0 mi West 6.9 mph - N/A   Clear
12:35 AM 30.2 °F 22.6 °F 26.6 °F 86% 29.83 in 10.0 mi West 8.1 mph - N/A   Clear
12:55 AM 28.4 °F 22.2 °F 24.8 °F 86% 29.83 in 10.0 mi West 5.8 mph - N/A   Clear
1:15 AM 28.4 °F 22.2 °F 24.8 °F 86% 29.82 in 10.0 mi West 5.8 mph - N/A   Clear
1:35 AM 28.4 °F 23.3 °F 24.8 °F 86% 29.81 in 10.0 mi WNW 4.6 mph - N/A   Clear
1:55 AM 26.6 °F 20.0 °F 24.8 °F 93% 29.81 in 10.0 mi WNW 5.8 mph - N/A   Clear
2:15 AM 26.6 °F 20.0 °F 24.8 °F 93% 29.81 in 10.0 mi West 5.8 mph - N/A   Clear
2:35 AM 26.6 °F 21.2 °F 24.8 °F 93% 29.80 in 10.0 mi West 4.6 mph - N/A   Clear
2:55 AM 26.6 °F 21.2 °F 23.0 °F 86% 29.80 in 10.0 mi WSW 4.6 mph - N/A   Clear
3:15 AM 26.6 °F 21.2 °F 23.0 °F 86% 29.79 in 10.0 mi West 4.6 mph - N/A   Clear
3:35 AM 26.6 °F 21.2 °F 23.0 °F 86% 29.79 in 10.0 mi West 4.6 mph - N/A   Clear
3:55 AM 26.6 °F 20.0 °F 23.0 °F 86% 29.79 in 10.0 mi WNW 5.8 mph - N/A   Clear
4:15 AM 24.8 °F 16.9 °F 23.0 °F 93% 29.79 in 10.0 mi West 6.9 mph - N/A   Clear
4:35 AM 24.8 °F 16.9 °F 23.0 °F 93% 29.78 in 10.0 mi WNW 6.9 mph - N/A   Clear
4:55 AM 24.8 °F 17.9 °F 23.0 °F 93% 29.78 in 10.0 mi West 5.8 mph - N/A   Clear
5:15 AM 24.8 °F 19.1 °F 23.0 °F 93% 29.78 in 10.0 mi West 4.6 mph - N/A   Clear
5:35 AM 24.8 °F 17.9 °F 23.0 °F 93% 29.78 in 9.0 mi West 5.8 mph - N/A   Clear
6:15 AM 24.8 °F 17.9 °F 21.2 °F 86% 29.77 in 10.0 mi WNW 5.8 mph - N/A   Clear
6:35 AM 24.8 °F 17.9 °F 21.2 °F 86% 29.77 in 10.0 mi WNW 5.8 mph - N/A   Clear
6:55 AM 24.8 °F 17.9 °F 21.2 °F 86% 29.77 in 9.0 mi West 5.8 mph - N/A   Clear
7:15 AM 24.8 °F 17.9 °F 21.2 °F 86% 29.77 in 7.0 mi West 5.8 mph - N/A   Scattered Clouds
7:35 AM 24.8 °F 17.9 °F 23.0 °F 93% 29.77 in 8.0 mi West 5.8 mph - N/A   Mostly Cloudy
7:55 AM 24.8 °F 17.9 °F 23.0 °F 93% 29.77 in 8.0 mi WNW 5.8 mph - N/A   Partly Cloudy
8:15 AM 26.6 °F 19.1 °F 23.0 °F 86% 29.76 in 9.0 mi West 6.9 mph - N/A   Clear
8:35 AM 26.6 °F 17.5 °F 23.0 °F 86% 29.76 in 10.0 mi WNW 9.2 mph - N/A   Clear
8:55 AM 26.6 °F 19.1 °F 23.0 °F 86% 29.76 in 10.0 mi WNW 6.9 mph - N/A   Clear
9:15 AM 28.4 °F 20.4 °F 23.0 °F 80% 29.76 in 10.0 mi West 8.1 mph - N/A   Clear
9:35 AM 28.4 °F 20.4 °F 24.8 °F 86% 29.76 in 10.0 mi West 8.1 mph - N/A   Clear
9:55 AM 30.2 °F 22.6 °F 24.8 °F 80% 29.76 in 10.0 mi West 8.1 mph - N/A   Clear
10:15 AM 32.0 °F 24.2 °F 26.6 °F 80% 29.76 in 10.0 mi West 9.2 mph - N/A   Clear
10:35 AM 32.0 °F 24.8 °F 26.6 °F 80% 29.76 in 10.0 mi West 8.1 mph - N/A   Clear
10:55 AM 32.0 °F 24.8 °F 26.6 °F 80% 29.76 in 10.0 mi WSW 8.1 mph - N/A   Clear
11:15 AM 32.0 °F 24.2 °F 26.6 °F 80% 29.75 in 10.0 mi SW 9.2 mph - N/A   Mostly Cloudy
11:35 AM 33.8 °F 27.0 °F 28.4 °F 81% 29.75 in 10.0 mi SW 8.1 mph - N/A   Overcast
11:55 AM 33.8 °F 27.7 °F 28.4 °F 81% 29.74 in 10.0 mi WSW 6.9 mph - N/A   Overcast
12:15 PM 35.6 °F 28.6 °F 28.4 °F 75% 29.74 in 10.0 mi WSW 9.2 mph - N/A   Overcast
12:35 PM 35.6 °F 28.6 °F 28.4 °F 75% 29.73 in 10.0 mi WSW 9.2 mph - N/A   Overcast
12:55 PM 35.6 °F 28.6 °F 30.2 °F 81% 29.73 in 10.0 mi WSW 9.2 mph - N/A   Overcast
1:15 PM 35.6 °F 28.0 °F 30.2 °F 81% 29.73 in 10.0 mi West 10.4 mph - N/A   Overcast
1:35 PM 35.6 °F 28.6 °F 30.2 °F 81% 29.73 in 10.0 mi West 9.2 mph - N/A   Overcast
1:55 PM 35.6 °F 27.5 °F 30.2 °F 81% 29.72 in 10.0 mi WSW 11.5 mph - N/A   Overcast
2:15 PM 35.6 °F 28.6 °F 32.0 °F 87% 29.72 in 10.0 mi WSW 9.2 mph - N/A   Overcast
2:35 PM 35.6 °F 28.6 °F 30.2 °F 81% 29.71 in 10.0 mi SW 9.2 mph - N/A   Overcast
2:55 PM 37.4 °F 31.4 °F 32.0 °F 81% 29.70 in 10.0 mi SW 8.1 mph - N/A   Overcast
3:15 PM 37.4 °F 31.4 °F 32.0 °F 81% 29.70 in 10.0 mi SW 8.1 mph - N/A   Overcast
3:35 PM 39.2 °F 34.2 °F 32.0 °F 75% 29.69 in 10.0 mi SW 6.9 mph - N/A   Mostly Cloudy
3:55 PM 39.2 °F 32.5 °F 32.0 °F 75% 29.68 in 10.0 mi SSW 10.4 mph - N/A   Scattered Clouds
4:15 PM 39.2 °F 33.6 °F 32.0 °F 75% 29.68 in 10.0 mi SSW 8.1 mph 13.8 mph N/A   Scattered Clouds
4:35 PM 39.2 °F 33.6 °F 32.0 °F 75% 29.68 in 10.0 mi SSW 8.1 mph - N/A   Clear
4:55 PM 39.2 °F 33.6 °F 32.0 °F 75% 29.68 in 10.0 mi SSW 8.1 mph - N/A   Partly Cloudy
5:15 PM 39.2 °F 34.2 °F 32.0 °F 75% 29.68 in 10.0 mi SSW 6.9 mph - N/A   Mostly Cloudy
5:35 PM 37.4 °F 31.4 °F 32.0 °F 81% 29.68 in 10.0 mi South 8.1 mph - N/A   Overcast
5:55 PM 35.6 °F 30.7 °F 32.0 °F 87% 29.67 in 10.0 mi South 5.8 mph - N/A   Overcast
6:15 PM 35.6 °F 29.2 °F 32.0 °F 87% 29.67 in 10.0 mi South 8.1 mph - N/A   Overcast
6:35 PM 37.4 °F 30.8 °F 32.0 °F 81% 29.66 in 10.0 mi South 9.2 mph - N/A   Overcast
6:55 PM 37.4 °F 30.8 °F 32.0 °F 81% 29.66 in 10.0 mi South 9.2 mph - N/A   Overcast
7:15 PM 37.4 °F 30.8 °F 32.0 °F 81% 29.65 in 10.0 mi South 9.2 mph - N/A   Mostly Cloudy
7:35 PM 37.4 °F 30.8 °F 32.0 °F 81% 29.65 in 10.0 mi South 9.2 mph - N/A   Overcast
7:55 PM 37.4 °F 30.3 °F 32.0 °F 81% 29.64 in 10.0 mi South 10.4 mph - N/A   Mostly Cloudy
8:15 PM 37.4 °F 30.3 °F 32.0 °F 81% 29.64 in 10.0 mi SSW 10.4 mph - N/A   Mostly Cloudy
8:35 PM 35.6 °F 28.6 °F 32.0 °F 87% 29.63 in 10.0 mi SSW 9.2 mph - N/A   Overcast
8:55 PM 37.4 °F 30.8 °F 32.0 °F 81% 29.62 in 10.0 mi SSW 9.2 mph - N/A Rain Light Rain
9:15 PM 37.4 °F 30.8 °F 32.0 °F 81% 29.61 in 10.0 mi SSW 9.2 mph - N/A   Overcast
9:35 PM 37.4 °F 30.8 °F 32.0 °F 81% 29.61 in 10.0 mi SSW 9.2 mph - N/A   Overcast
9:55 PM 35.6 °F 29.2 °F 32.0 °F 87% 29.59 in 10.0 mi South 8.1 mph - N/A   Overcast
10:15 PM 37.4 °F 30.8 °F 32.0 °F 81% 29.60 in 10.0 mi SSW 9.2 mph - N/A   Overcast
10:35 PM 39.2 °F 32.5 °F 32.0 °F 75% 29.60 in 10.0 mi SW 10.4 mph - N/A   Overcast
10:55 PM 37.4 °F 30.8 °F 32.0 °F 81% 29.59 in 10.0 mi SW 9.2 mph - N/A   Overcast
11:15 PM 37.4 °F 29.8 °F 32.0 °F 81% 29.60 in 10.0 mi WSW 11.5 mph - N/A   Overcast
11:35 PM 39.2 °F 31.2 °F 32.0 °F 75% 29.60 in 10.0 mi West 13.8 mph - N/A   Overcast
11:55 PM 37.4 °F 28.9 °F 32.0 °F 81% 29.60 in 10.0 mi West 13.8 mph 20.7 mph N/A   Overcast